| time (UTC) | temp C | wind direction | speed KPH | gust KPH | rain 1hr cm | rain 24hr cm | rain mn cm | humidity % | barometer mb |
| 20260503053049 | 26 | 0 | 6.4 | 14.5 | 0.00 | 0.00 | 0.00 | 78 | 1015.5 |
| 20260503051919 | 26 | 0 | 4.8 | 14.5 | 0.00 | 0.00 | 0.00 | 78 | 1015.7 |
| 20260503051416 | 27 | 0 | 3.2 | 16.1 | 0.00 | 0.00 | 0.00 | 78 | 1015.8 |
| 20260503050918 | 27 | 0 | 3.2 | 16.1 | 0.00 | 0.00 | 0.00 | 78 | 1015.7 |
| 20260503050425 | 27 | 0 | 4.8 | 16.1 | 0.00 | 0.00 | 0.00 | 78 | 1015.7 |
| 20260503045923 | 27 | 0 | 4.8 | 16.1 | 0.00 | 0.00 | 0.00 | 78 | 1016.0 |
| 20260503045417 | 27 | 0 | 4.8 | 14.5 | 0.00 | 0.00 | 0.00 | 78 | 1015.9 |
| 20260503044903 | 27 | 0 | 4.8 | 14.5 | 0.00 | 0.00 | 0.00 | 77 | 1016.0 |
| 20260503044413 | 27 | 0 | 6.4 | 19.3 | 0.00 | 0.00 | 0.00 | 77 | 1015.8 |
| 20260503043904 | 27 | 0 | 8.0 | 19.3 | 0.00 | 0.00 | 0.00 | 77 | 1015.9 |
| 20260503043358 | 27 | 0 | 8.0 | 19.3 | 0.00 | 0.00 | 0.00 | 77 | 1016.0 |
| 20260503042841 | 27 | 0 | 6.4 | 19.3 | 0.00 | 0.00 | 0.00 | 77 | 1016.0 |
| 20260503041650 | 27 | 0 | 6.4 | 14.5 | 0.00 | 0.00 | 0.00 | 76 | 1015.9 |
| 20260503041152 | 27 | 0 | 6.4 | 14.5 | 0.00 | 0.00 | 0.00 | 76 | 1015.8 |
| 20260503040641 | 27 | 0 | 4.8 | 12.9 | 0.00 | 0.00 | 0.00 | 76 | 1015.7 |
| 20260503040137 | 27 | 0 | 6.4 | 19.3 | 0.00 | 0.00 | 0.00 | 76 | 1015.7 |
| 20260503035638 | 27 | 0 | 6.4 | 19.3 | 0.00 | 0.00 | 0.00 | 76 | 1015.7 |
| 20260503035129 | 27 | 0 | 6.4 | 20.9 | 0.00 | 0.00 | 0.00 | 75 | 1015.7 |
| 20260503034638 | 27 | 0 | 8.0 | 20.9 | 0.00 | 0.00 | 0.00 | 75 | 1015.7 |
| 20260503033534 | 27 | 0 | 6.4 | 20.9 | 0.00 | 0.00 | 0.00 | 75 | 1015.6 |
| 20260503032418 | 27 | 0 | 6.4 | 17.7 | 0.00 | 0.00 | 0.00 | 74 | 1015.3 |
| 20260503031244 | 27 | 0 | 6.4 | 27.4 | 0.00 | 0.00 | 0.00 | 73 | 1015.4 |
| 20260503030119 | 27 | 0 | 8.0 | 27.4 | 0.00 | 0.00 | 0.00 | 73 | 1015.3 |
| 20260503024936 | 27 | 0 | 9.7 | 20.9 | 0.00 | 0.00 | 0.00 | 71 | 1015.3 |
| 20260503024429 | 27 | 0 | 9.7 | 20.9 | 0.00 | 0.00 | 0.00 | 71 | 1015.2 |
| 20260503023913 | 27 | 0 | 8.0 | 22.5 | 0.00 | 0.00 | 0.00 | 70 | 1015.5 |
| 20260503023414 | 27 | 0 | 9.7 | 22.5 | 0.00 | 0.00 | 0.00 | 70 | 1015.3 |
| 20260503022922 | 28 | 0 | 9.7 | 22.5 | 0.00 | 0.00 | 0.00 | 70 | 1015.4 |
| 20260503022423 | 28 | 0 | 11.3 | 22.5 | 0.00 | 0.00 | 0.00 | 70 | 1015.4 |
| 20260503021922 | 28 | 0 | 11.3 | 22.5 | 0.00 | 0.00 | 0.00 | 69 | 1015.4 |
| 20260503021426 | 28 | 0 | 9.7 | 22.5 | 0.00 | 0.00 | 0.00 | 69 | 1015.3 |
| 20260503020928 | 28 | 0 | 8.0 | 22.5 | 0.00 | 0.00 | 0.00 | 69 | 1015.3 |
| 20260503020429 | 28 | 0 | 9.7 | 24.1 | 0.00 | 0.00 | 0.00 | 69 | 1015.1 |
| 20260503015925 | 28 | 0 | 11.3 | 24.1 | 0.00 | 0.00 | 0.00 | 68 | 1015.1 |
| 20260503015414 | 28 | 0 | 11.3 | 24.1 | 0.00 | 0.00 | 0.00 | 67 | 1015.2 |
| 20260503013627 | 28 | 0 | 11.3 | 22.5 | 0.00 | 0.00 | 0.00 | 64 | 1015.0 |
| 20260503013134 | 28 | 0 | 11.3 | 22.5 | 0.00 | 0.00 | 0.00 | 63 | 1014.9 |
| 20260503012631 | 28 | 0 | 8.0 | 20.9 | 0.00 | 0.00 | 0.00 | 62 | 1014.7 |
| 20260503012121 | 28 | 0 | 8.0 | 19.3 | 0.00 | 0.00 | 0.00 | 62 | 1014.7 |
| 20260503011628 | 29 | 0 | 9.7 | 25.7 | 0.00 | 0.00 | 0.00 | 61 | 1014.6 |
| 20260503011118 | 29 | 0 | 9.7 | 25.7 | 0.00 | 0.00 | 0.00 | 61 | 1014.6 |
| 20260503005347 | 29 | 0 | 11.3 | 30.6 | 0.00 | 0.00 | 0.00 | 59 | 1014.4 |
| 20260503004833 | 30 | 0 | 11.3 | 22.5 | 0.00 | 0.00 | 0.00 | 58 | 1014.2 |
| 20260503004340 | 30 | 0 | 12.9 | 29.0 | 0.00 | 0.00 | 0.00 | 57 | 1014.3 |
| 20260503003833 | 30 | 0 | 12.9 | 29.0 | 0.00 | 0.00 | 0.00 | 57 | 1014.1 |
| 20260503003330 | 30 | 0 | 14.5 | 29.0 | 0.00 | 0.00 | 0.00 | 56 | 1014.0 |
| 20260503002814 | 30 | 0 | 12.9 | 29.0 | 0.00 | 0.00 | 0.00 | 55 | 1014.0 |
| 20260503001648 | 30 | 0 | 12.9 | 29.0 | 0.00 | 0.00 | 0.00 | 53 | 1013.8 |
| 20260503001145 | 30 | 0 | 14.5 | 29.0 | 0.00 | 0.00 | 0.00 | 52 | 1013.8 |
| 20260503000638 | 31 | 0 | 12.9 | 29.0 | 0.00 | 0.00 | 0.00 | 52 | 1013.7 |
| 20260503000119 | 31 | 0 | 12.9 | 29.0 | 0.00 | 0.00 | 0.00 | 51 | 1013.6 |
| 20260502235605 | 31 | 0 | 11.3 | 25.7 | 0.00 | 0.00 | 0.00 | 50 | 1013.5 |
| 20260502235049 | 31 | 0 | 8.0 | 25.7 | 0.00 | 0.00 | 0.00 | 49 | 1013.5 |
| 20260502234538 | 31 | 0 | 6.4 | 19.3 | 0.00 | 0.00 | 0.00 | 47 | 1013.3 |
| 20260502234021 | 31 | 0 | 8.0 | 19.3 | 0.00 | 0.00 | 0.00 | 47 | 1013.2 |
| 20260502233528 | 31 | 0 | 9.7 | 22.5 | 0.00 | 0.00 | 0.00 | 46 | 1013.1 |
| 20260502231755 | 32 | 0 | 8.0 | 22.5 | 0.00 | 0.00 | 0.00 | 45 | 1012.7 |
| 20260502231256 | 32 | 0 | 11.3 | 22.5 | 0.00 | 0.00 | 0.00 | 44 | 1012.7 |
| 20260502230740 | 32 | 0 | 11.3 | 22.5 | 0.00 | 0.00 | 0.00 | 44 | 1012.6 |
| 20260502230234 | 32 | 0 | 9.7 | 22.5 | 0.00 | 0.00 | 0.00 | 44 | 1012.4 |
| 20260502225739 | 32 | 0 | 9.7 | 22.5 | 0.00 | 0.00 | 0.00 | 43 | 1012.4 |
| 20260502225220 | 32 | 0 | 12.9 | 24.1 | 0.00 | 0.00 | 0.00 | 43 | 1012.4 |
| 20260502224706 | 32 | 0 | 9.7 | 24.1 | 0.00 | 0.00 | 0.00 | 43 | 1012.4 |
| 20260502222850 | 33 | 0 | 12.9 | 32.2 | 0.00 | 0.00 | 0.00 | 42 | 1012.3 |
| 20260502222354 | 33 | 0 | 14.5 | 32.2 | 0.00 | 0.00 | 0.00 | 42 | 1012.3 |
| 20260502221854 | 33 | 0 | 11.3 | 32.2 | 0.00 | 0.00 | 0.00 | 41 | 1012.3 |
| 20260502221352 | 33 | 0 | 9.7 | 32.2 | 0.00 | 0.00 | 0.00 | 41 | 1012.2 |
| 20260502215558 | 33 | 0 | 11.3 | 29.0 | 0.00 | 0.00 | 0.00 | 41 | 1012.1 |
| 20260502214424 | 33 | 0 | 12.9 | 32.2 | 0.00 | 0.00 | 0.00 | 40 | 1012.2 |
| 20260502213926 | 33 | 0 | 12.9 | 32.2 | 0.00 | 0.00 | 0.00 | 40 | 1012.0 |
| 20260502213412 | 33 | 0 | 14.5 | 32.2 | 0.00 | 0.00 | 0.00 | 40 | 1011.9 |
| 20260502212246 | 33 | 0 | 12.9 | 32.2 | 0.00 | 0.00 | 0.00 | 41 | 1011.8 |
| 20260502211753 | 33 | 0 | 12.9 | 30.6 | 0.00 | 0.00 | 0.00 | 41 | 1011.9 |
| 20260502211302 | 33 | 0 | 12.9 | 30.6 | 0.00 | 0.00 | 0.00 | 41 | 1011.9 |
| 20260502210748 | 33 | 0 | 12.9 | 37.0 | 0.00 | 0.00 | 0.00 | 40 | 1011.9 |
| 20260502210243 | 33 | 0 | 14.5 | 37.0 | 0.00 | 0.00 | 0.00 | 41 | 1011.8 |
| 20260502205751 | 33 | 0 | 14.5 | 37.0 | 0.00 | 0.00 | 0.00 | 41 | 1011.8 |
| 20260502203940 | 33 | 0 | 11.3 | 30.6 | 0.00 | 0.00 | 0.00 | 42 | 1011.9 |
| 20260502203437 | 33 | 0 | 11.3 | 27.4 | 0.00 | 0.00 | 0.00 | 43 | 1011.9 |
| 20260502202918 | 34 | 0 | 12.9 | 37.0 | 0.00 | 0.00 | 0.00 | 42 | 1011.8 |
| 20260502202407 | 34 | 0 | 14.5 | 37.0 | 0.00 | 0.00 | 0.00 | 41 | 1011.9 |
| 20260502201909 | 34 | 0 | 16.1 | 37.0 | 0.00 | 0.00 | 0.00 | 41 | 1011.9 |
| 20260502201354 | 33 | 0 | 14.5 | 37.0 | 0.00 | 0.00 | 0.00 | 42 | 1012.0 |
| 20260502200851 | 34 | 0 | 9.7 | 32.2 | 0.00 | 0.00 | 0.00 | 42 | 1012.1 |
| 20260502200334 | 34 | 0 | 11.3 | 32.2 | 0.00 | 0.00 | 0.00 | 45 | 1012.1 |
| 20260502195204 | 33 | 0 | 14.5 | 33.8 | 0.00 | 0.00 | 0.00 | 44 | 1012.1 |
| 20260502194655 | 34 | 0 | 11.3 | 35.4 | 0.00 | 0.00 | 0.00 | 43 | 1012.3 |
| 20260502193533 | 33 | 0 | 14.5 | 35.4 | 0.00 | 0.00 | 0.00 | 44 | 1012.2 |
| 20260502190506 | 33 | 0 | 16.1 | 35.4 | 0.00 | 0.00 | 0.00 | 46 | 1012.5 |
| 20260502185948 | 32 | 0 | 11.3 | 35.4 | 0.00 | 0.00 | 0.00 | 50 | 1012.5 |
| 20260502185456 | 32 | 0 | 6.4 | 30.6 | 0.00 | 0.00 | 0.00 | 53 | 1012.5 |
| 20260502184938 | 32 | 0 | 9.7 | 29.0 | 0.00 | 0.00 | 0.00 | 56 | 1012.5 |
| 20260502184429 | 31 | 0 | 11.3 | 29.0 | 0.00 | 0.00 | 0.00 | 69 | 1012.6 |
| 20260502183917 | 31 | 0 | 12.9 | 37.0 | 0.00 | 0.00 | 0.00 | 63 | 1012.5 |
| 20260502182749 | 30 | 0 | 17.7 | 37.0 | 0.00 | 0.00 | 0.00 | 75 | 1012.7 |
| 20260502182235 | 30 | 0 | 14.5 | 37.0 | 0.00 | 0.00 | 0.00 | 76 | 1012.9 |
| 20260502181723 | 30 | 0 | 12.9 | 30.6 | 0.00 | 0.00 | 0.00 | 76 | 1012.6 |
| 20260502181229 | 30 | 0 | 12.9 | 32.2 | 0.00 | 0.00 | 0.00 | 75 | 1013.1 |
| 20260502180120 | 29 | 0 | 16.1 | 37.0 | 0.00 | 0.00 | 0.00 | 79 | 1013.1 |
| 20260502164055 | 28 | 0 | 17.7 | 30.6 | 0.00 | 0.00 | 0.00 | 84 | 1013.7 |
| 20260502163604 | 28 | 0 | 16.1 | 30.6 | 0.00 | 0.00 | 0.00 | 84 | 1013.8 |
| 20260502163105 | 28 | 0 | 14.5 | 30.6 | 0.00 | 0.00 | 0.00 | 83 | 1013.7 |
| 20260502162615 | 28 | 0 | 16.1 | 30.6 | 0.00 | 0.00 | 0.00 | 83 | 1013.7 |
| 20260502160859 | 28 | 0 | 16.1 | 30.6 | 0.00 | 0.00 | 0.00 | 83 | 1013.8 |
| 20260502160344 | 28 | 0 | 17.7 | 29.0 | 0.00 | 0.00 | 0.00 | 83 | 1014.1 |
| 20260502152150 | 28 | 0 | 16.1 | 35.4 | 0.00 | 0.00 | 0.00 | 82 | 1014.2 |
| 20260502151635 | 28 | 0 | 16.1 | 35.4 | 0.00 | 0.00 | 0.00 | 84 | 1014.3 |
| 20260502151140 | 28 | 0 | 16.1 | 35.4 | 0.00 | 0.00 | 0.00 | 84 | 1014.2 |
| 20260502150650 | 28 | 0 | 17.7 | 35.4 | 0.00 | 0.00 | 0.00 | 84 | 1014.3 |
| 20260502150132 | 28 | 0 | 17.7 | 32.2 | 0.00 | 0.00 | 0.00 | 83 | 1014.3 |
| 20260502130351 | 28 | 0 | 4.8 | 19.3 | 0.00 | 0.00 | 0.00 | 82 | 1013.8 |
| 20260502122654 | 27 | 0 | 4.8 | 12.9 | 0.00 | 0.00 | 0.00 | 84 | 1013.9 |
| 20260502122152 | 26 | 0 | 3.2 | 11.3 | 0.00 | 0.00 | 0.00 | 85 | 1013.8 |
| 20260502121634 | 26 | 0 | 1.6 | 6.4 | 0.00 | 0.00 | 0.00 | 85 | 1013.8 |
| 20260502121117 | 26 | 0 | 1.6 | 6.4 | 0.00 | 0.00 | 0.00 | 85 | 1013.7 |
| 20260502120606 | 26 | 0 | 3.2 | 8.0 | 0.00 | 0.00 | 0.00 | 85 | 1013.7 |
| 20260502115540 | 25 | 0 | 3.2 | 8.0 | 0.00 | 0.00 | 0.00 | 86 | 1013.7 |
| 20260502115031 | 25 | 0 | 1.6 | 8.0 | 0.00 | 0.00 | 0.00 | 86 | 1013.7 |
| 20260502114528 | 25 | 0 | 0.0 | 4.8 | 0.00 | 0.00 | 0.00 | 86 | 1013.8 |
| 20260502114011 | 25 | 0 | 0.0 | 0.0 | 0.00 | 0.00 | 0.00 | 86 | 1013.9 |
| 20260502112845 | 25 | 0 | 0.0 | 0.0 | 0.00 | 0.00 | 0.00 | 87 | 1013.9 |
| 20260502111737 | 25 | 0 | 0.0 | 0.0 | 0.00 | 0.00 | 0.00 | 87 | 1013.9 |
| 20260502110606 | 25 | 0 | 0.0 | 0.0 | 0.00 | 0.00 | 0.00 | 87 | 1013.7 |
| 20260502105543 | 25 | 0 | 1.6 | 4.8 | 0.00 | 0.00 | 0.00 | 86 | 1013.8 |
| 20260502105043 | 24 | 0 | 0.0 | 4.8 | 0.00 | 0.00 | 0.00 | 86 | 1013.7 |
| 20260502104553 | 24 | 0 | 0.0 | 3.2 | 0.00 | 0.00 | 0.00 | 86 | 1013.8 |
| 20260502104103 | 25 | 0 | 0.0 | 3.2 | 0.00 | 0.00 | 0.00 | 86 | 1013.8 |
| 20260502103613 | 25 | 0 | 0.0 | 3.2 | 0.00 | 0.00 | 0.00 | 86 | 1013.6 |
| 20260502103111 | 24 | 0 | 0.0 | 3.2 | 0.00 | 0.00 | 0.00 | 86 | 1013.7 |
| 20260502102553 | 24 | 0 | 0.0 | 3.2 | 0.00 | 0.00 | 0.00 | 86 | 1013.7 |
| 20260502102052 | 24 | 0 | 1.6 | 3.2 | 0.00 | 0.00 | 0.00 | 85 | 1013.6 |
| 20260502101537 | 24 | 0 | 0.0 | 3.2 | 0.00 | 0.00 | 0.00 | 86 | 1013.5 |
| 20260502101023 | 24 | 0 | 0.0 | 3.2 | 0.00 | 0.00 | 0.00 | 85 | 1013.6 |
| 20260502100512 | 24 | 0 | 0.0 | 0.0 | 0.00 | 0.00 | 0.00 | 85 | 1013.6 |
| 20260502091333 | 23 | 0 | 0.0 | 1.6 | 0.00 | 0.00 | 0.00 | 84 | 1013.7 |
| 20260502090820 | 23 | 0 | 0.0 | 1.6 | 0.00 | 0.00 | 0.00 | 84 | 1013.7 |
| 20260502090315 | 24 | 0 | 0.0 | 3.2 | 0.00 | 0.00 | 0.00 | 84 | 1013.6 |
| 20260502065340 | 24 | 0 | 1.6 | 4.8 | 0.00 | 0.00 | 0.00 | 84 | 1013.7 |
| 20260502064826 | 24 | 0 | 1.6 | 6.4 | 0.00 | 0.00 | 0.00 | 84 | 1013.8 |
| 20260502064308 | 25 | 0 | 1.6 | 6.4 | 0.00 | 0.00 | 0.00 | 85 | 1013.8 |
| 20260502063759 | 25 | 0 | 3.2 | 8.0 | 0.00 | 0.00 | 0.00 | 85 | 1013.8 |
| 20260502063305 | 25 | 0 | 1.6 | 8.0 | 0.00 | 0.00 | 0.00 | 87 | 1013.7 |
| 20260502062759 | 25 | 0 | 0.0 | 3.2 | 0.00 | 0.00 | 0.00 | 87 | 1013.7 |
| 20260502062306 | 25 | 0 | 0.0 | 3.2 | 0.00 | 0.00 | 0.00 | 86 | 1013.8 |
| 20260502060538 | 25 | 0 | 1.6 | 6.4 | 0.00 | 0.00 | 0.00 | 86 | 1013.8 |
| 20260502060022 | 25 | 0 | 1.6 | 6.4 | 0.00 | 0.00 | 0.00 | 85 | 1013.8 |
| 20260502055525 | 25 | 0 | 3.2 | 8.0 | 0.00 | 0.00 | 0.00 | 85 | 1013.8 |
| 20260502054340 | 26 | 0 | 4.8 | 14.5 | 0.00 | 0.00 | 0.00 | 85 | 1013.8 |
| 20260502053843 | 26 | 0 | 6.4 | 14.5 | 0.00 | 0.00 | 0.00 | 85 | 1013.8 |